E0050 Weather Reports


time (UTC)temp
C
wind
direction
speed
KPH
gust
KPH
rain 1hr
cm
rain 24hr
cm
rain mn
cm
humidity
%
barometer
mb
20260505180046 17 213 4.8 8.0 0.00 0.79 0.00 77 1010.4
20260505174503 17 227 3.2 9.7 0.00 0.79 0.00 76 1010.2
20260505173035 17 252 4.8 9.7 0.00 0.81 0.00 75 1010.3
20260505171553 18 225 6.4 9.7 0.00 0.81 0.00 74 1010.6
20260505170020 18 234 6.4 12.9 0.00 0.81 0.00 74 1010.5
20260505164538 19 212 8.0 14.5 0.00 0.81 0.00 72 1010.5
20260505163008 19 234 4.8 12.9 0.00 0.81 0.00 70 1010.6
20260505161504 20 208 6.4 11.3 0.00 0.81 0.00 67 1010.4
20260505153021 19 248 4.8 11.3 0.00 0.84 0.00 72 1010.8
20260505151541 19 234 4.8 11.3 0.00 0.84 0.00 72 1010.8
20260505124530 19 231 6.4 12.9 0.00 0.84 0.00 74 1011.3
20260505123108 19 224 8.0 14.5 0.00 0.84 0.00 74 1011.5
20260505121515 18 210 8.0 14.5 0.00 0.84 0.00 76 1011.5
20260505120053 18 234 11.3 19.3 0.00 0.84 0.00 76 1011.6
20260505114501 19 206 9.7 14.5 0.00 0.84 0.00 75 1011.5
20260505113031 18 205 6.4 12.9 0.00 0.84 0.00 78 1011.6
20260505111550 18 296 8.0 12.9 0.00 0.84 0.00 78 1011.7
20260505101523 17 243 8.0 16.1 0.00 0.84 0.00 82 1011.7
20260505100054 17 284 6.4 14.5 0.00 0.84 0.00 84 1011.8
20260505094507 17 232 9.7 12.9 0.00 0.84 0.00 85 1011.9
20260505093037 17 244 9.7 14.5 0.00 0.84 0.00 86 1011.8
20260505091536 17 223 11.3 17.7 0.00 0.84 0.00 88 1011.6
20260505090005 16 223 9.7 19.3 0.00 0.84 0.00 90 1011.7
20260505084522 16 229 6.4 14.5 0.00 0.84 0.00 91 1011.6
20260505083050 16 234 8.0 16.1 0.00 0.84 0.00 92 1011.3
20260505081508 16 244 6.4 12.9 0.00 0.84 0.00 92 1011.2
20260505080039 15 275 6.4 14.5 0.00 0.84 0.00 92 1011.2
20260505074531 16 293 4.8 16.1 0.00 0.84 0.00 92 1011.0
20260505073102 16 116 4.8 14.5 0.00 0.86 0.00 92 1010.7
20260505071539 16 149 1.6 8.0 0.00 0.86 0.00 92 1010.9
20260505070053 15 120 0.0 8.0 0.00 0.86 0.00 93 1010.9
20260505064511 15 78 3.2 12.9 0.00 0.86 0.00 93 1010.7
20260505063035 15 86 4.8 11.3 0.00 0.94 0.00 93 1010.6
20260505061558 14 86 3.2 11.3 0.00 0.94 0.00 92 1010.6
20260505060021 14 72 3.2 9.7 0.00 0.94 0.00 92 1010.5
20260505054552 14 73 6.4 16.1 0.00 0.94 0.00 92 1010.6
20260505053012 14 57 1.6 14.5 0.00 1.02 0.00 92 1010.4
20260505051536 14 89 4.8 16.1 0.00 1.02 0.00 92 1010.2
20260505041542 13 118 3.2 11.3 0.00 1.09 0.00 92 1010.0
20260505040010 13 105 4.8 14.5 0.00 1.09 0.00 92 1009.7
20260505034528 13 133 1.6 11.3 0.00 1.09 0.00 92 1009.7
20260505033100 13 86 4.8 12.9 0.00 1.09 0.00 92 1009.6
20260505031558 13 50 1.6 20.9 0.00 1.09 0.00 92 1009.8
20260505030027 13 104 4.8 17.7 0.00 1.09 0.00 92 1010.0
20260505024545 13 71 9.7 16.1 0.03 1.09 0.00 92 1010.0
20260505023010 13 148 3.2 11.3 0.25 1.09 1.09 92 1010.3
20260505021528 13 75 9.7 16.1 0.25 1.09 1.09 92 1010.2
20260505020104 13 148 4.8 16.1 0.25 1.09 1.09 92 1010.0
20260505014515 13 73 4.8 17.7 0.23 1.09 1.09 92 1010.2
20260505013044 13 75 4.8 16.1 0.00 0.84 0.84 92 1010.0
20260505011552 13 126 6.4 17.7 0.00 0.84 0.84 92 1010.1
20260505010016 13 109 4.8 14.5 0.00 0.84 0.84 91 1010.4
20260505004536 13 124 4.8 22.5 0.00 0.84 0.84 91 1010.6
20260505003003 13 80 9.7 24.1 0.05 0.84 0.84 91 1010.9
20260505001522 13 112 6.4 17.7 0.08 0.84 0.84 91 1010.8
20260504234510 13 128 4.8 22.5 0.20 0.84 0.84 91 1011.3
20260504233043 13 80 12.9 33.8 0.18 0.79 0.79 90 1011.0
20260504231559 14 103 6.4 20.9 0.28 0.76 0.76 90 1011.1
20260504230028 14 53 9.7 35.4 0.38 0.71 0.71 89 1010.9
20260504224526 14 288 9.7 35.4 0.33 0.64 0.64 89 1010.9
20260504223056 14 71 11.3 25.7 0.33 0.61 0.61 88 1011.1
20260504221516 14 94 11.3 29.0 0.15 0.46 0.46 86 1011.5
20260504220053 15 73 9.7 24.1 0.03 0.33 0.33 84 1011.8
20260504214549 15 75 9.7 24.1 0.00 0.30 0.30 83 1011.5
20260504213009 15 94 16.1 37.0 0.00 0.30 0.30 83 1012.1
20260504211506 15 146 8.0 30.6 0.00 0.30 0.30 83 1012.2
20260504210036 15 73 12.9 29.0 0.00 0.30 0.30 82 1012.1
20260504204533 15 138 8.0 33.8 0.00 0.30 0.30 81 1012.1
20260504203005 15 82 9.7 27.4 0.00 0.30 0.30 80 1012.0
20260504201520 15 73 8.0 25.7 0.00 0.30 0.30 79 1012.3
20260504200055 15 61 9.7 25.7 0.00 0.30 0.30 78 1012.5
20260504194506 15 109 9.7 27.4 0.00 0.30 0.30 76 1012.8
20260504193035 15 121 12.9 25.7 0.00 0.30 0.30 76 1012.7
20260504191558 15 82 11.3 29.0 0.00 0.30 0.30 76 1012.4
20260504190022 15 96 8.0 22.5 0.00 0.30 0.30 77 1012.4
20260504184552 15 109 11.3 24.1 0.00 0.30 0.30 78 1012.3
20260504183010 15 109 11.3 27.4 0.00 0.30 0.30 79 1012.5
20260504181528 14 90 12.9 30.6 0.03 0.30 0.30 82 1012.5